This demonstration page uses our WeatherBlox Daily Observations layout. Learn more.

Left ArrowRight Arrow

Hourly Observations for July 15, 2018

Temp ( °F °C ) Dew Point ( °F °C ) Humidity (%) Winds ( mph kmh ) Pressure ( in mb ) Visibility ( mi km ) Precip ( " mm )
12:16 am 00:16 Clear 72 22 72 22 100 100 N N/A 30.03 1017 10 16.0934 N/A
12:37 am 00:37 Clear 70 21 70 21 100 100 N N/A 30.06 1018 10 16.0934 N/A
12:57 am 00:57 Clear 72 22 72 22 100 100 N N/A 30.03 1017 10 16.0934 N/A
1:16 am 01:16 Clear 70 21 70 21 100 100 N N/A 30.06 1018 10 16.0934 N/A
1:37 am 01:37 Clear 70 21 70 21 100 100 N N/A 30.06 1018 10 16.0934 N/A
1:56 am 01:56 Clear 70 21 70 21 100 100 N N/A 30.06 1018 10 16.0934 N/A
2:16 am 02:16 Clear 70 21 70 21 100 100 N N/A 30 1016 10 16.0934 N/A
2:37 am 02:37 Clear 70 21 70 21 100 100 N N/A 30 1016 10 16.0934 N/A
2:56 am 02:56 Clear 70 21 70 21 100 100 N N/A 30 1016 10 16.0934 N/A
3:16 am 03:16 Clear 70 21 70 21 100 100 N N/A 30 1016 7 11.26538 N/A
3:37 am 03:37 Clear 70 21 70 21 100 100 N N/A 30 1016 10 16.0934 N/A
3:56 am 03:56 Partly Cloudy 70 21 70 21 100 100 N N/A 30 1016 10 16.0934 N/A
4:17 am 04:17 Partly Cloudy 70 21 70 21 100 100 N N/A 30 1016 10 16.0934 N/A
4:36 am 04:36 Clear 70 21 70 21 100 100 N N/A 30 1016 10 16.0934 N/A
4:57 am 04:57 Partly Cloudy 70 21 70 21 100 100 N N/A 30 1016 10 16.0934 N/A
5:16 am 05:16 Partly Cloudy 72 22 72 22 100 100 N N/A 30 1016 10 16.0934 N/A
5:36 am 05:36 Partly Cloudy 72 22 72 22 100 100 N N/A 30 1016 10 16.0934 N/A
5:57 am 05:57 Clear 72 22 72 22 100 100 N N/A 30 1016 10 16.0934 N/A
6:16 am 06:16 Clear 72 22 72 22 100 100 N N/A 30 1016 10 16.0934 N/A
6:37 am 06:37 Sunny 72 22 72 22 100 100 N N/A 30 1016 10 16.0934 N/A
6:57 am 06:57 Mostly Cloudy 70 21 70 21 100 100 N N/A 30 1016 7 11.26538 N/A
7:16 am 07:16 Cloudy 72 22 72 22 100 100 N N/A 30 1016 7 11.26538 N/A
7:37 am 07:37 Cloudy 72 22 72 22 100 100 N N/A 30.03 1017 7 11.26538 N/A
7:56 am 07:56 Mostly Cloudy 72 22 72 22 100 100 N N/A 30.03 1017 7 11.26538 N/A
8:17 am 08:17 Cloudy 72 22 72 22 100 100 N N/A 30.03 1017 10 16.0934 N/A
8:36 am 08:36 Mostly Cloudy 73 23 73 23 100 100 S 3 6 30.03 1017 7 11.26538 N/A
8:56 am 08:56 Mostly Cloudy 73 23 73 23 100 100 N N/A 30.03 1017 7 11.26538 N/A
9:17 am 09:17 Partly Cloudy 75 24 75 24 100 100 S 3 6 30.03 1017 10 16.0934 N/A
9:36 am 09:36 Partly Cloudy 77 25 75 24 94 94 SSW 5 7 30.03 1017 10 16.0934 N/A
9:57 am 09:57 Partly Cloudy 77 25 75 24 94 94 S 3 6 30 1016 10 16.0934 N/A
10:16 am 10:16 Partly Cloudy 79 26 73 23 84 84 N N/A 30 1016 10 16.0934 N/A
10:36 am 10:36 Partly Cloudy 79 26 75 24 89 89 SSW 3 6 30 1016 10 16.0934 N/A
10:57 am 10:57 Sunny 79 26 75 24 89 89 S 3 6 30 1016 10 16.0934 N/A
11:16 am 11:16 Sunny 81 27 75 24 84 84 S 6 9 29.97 1015 10 16.0934 N/A
11:37 am 11:37 Sunny 81 27 77 25 89 89 SSW 6 9 30 1016 10 16.0934 N/A
11:57 am 11:57 Sunny 82 28 75 24 79 79 SSW 6 9 30 1016 10 16.0934 N/A
12:16 pm 12:16 Sunny 82 28 77 25 84 84 SSW 5 7 30 1016 10 16.0934 N/A
12:37 pm 12:37 Sunny 84 29 75 24 74 74 N N/A 30 1016 10 16.0934 N/A
12:56 pm 12:56 Sunny 86 30 77 25 75 75 S 7 11 30 1016 10 16.0934 N/A
1:16 pm 13:16 Sunny 86 30 77 25 75 75 SSE 7 11 30 1016 10 16.0934 N/A
1:37 pm 13:37 Sunny 86 30 77 25 75 75 SSW 8 13 30 1016 10 16.0934 N/A
1:56 pm 13:56 Partly Cloudy 86 30 77 25 75 75 S 7 11 30 1016 10 16.0934 N/A
2:17 pm 14:17 Partly Cloudy 86 30 77 25 75 75 SSW 9 15 30 1016 10 16.0934 N/A
2:36 pm 14:36 Partly Cloudy 88 31 75 24 66 66 SSW 9 15 29.94 1014 10 16.0934 N/A
2:56 pm 14:56 Partly Cloudy 88 31 75 24 66 66 S 13 20 29.94 1014 10 16.0934 N/A
3:17 pm 15:17 Mostly Cloudy 86 30 73 23 66 66 S 8 13 29.97 1015 10 16.0934 N/A
3:36 pm 15:36 Mostly Cloudy 84 29 73 23 70 70 SSW 9 15 29.97 1015 10 16.0934 N/A
3:57 pm 15:57 Mostly Cloudy 86 30 75 24 70 70 SSW 12 19 29.97 1015 10 16.0934 N/A
4:16 pm 16:16 Partly Cloudy 86 30 77 25 75 75 S 14 22 29.97 1015 10 16.0934 N/A
4:36 pm 16:36 Partly Cloudy 82 28 75 24 79 79 SSW 12 19 29.97 1015 10 16.0934 N/A
4:57 pm 16:57 Partly Cloudy 82 28 72 22 70 70 SSW 10 17 29.97 1015 10 16.0934 N/A
5:16 pm 17:16 Partly Cloudy 84 29 73 23 70 70 SSW 9 15 29.97 1015 10 16.0934 N/A
5:37 pm 17:37 Mostly Cloudy 82 28 73 23 74 74 WSW 12 19 29.97 1015 10 16.0934 N/A
5:57 pm 17:57 Mostly Cloudy 82 28 73 23 74 74 SW 7 11 29.97 1015 10 16.0934 N/A
6:16 pm 18:16 Mostly Cloudy 84 29 75 24 74 74 W 10 17 29.97 1015 10 16.0934 N/A
6:36 pm 18:36 Mostly Cloudy 84 29 75 24 74 74 WSW 5 7 29.97 1015 10 16.0934 N/A
6:57 pm 18:57 Mostly Cloudy 84 29 75 24 74 74 N N/A 29.94 1014 10 16.0934 N/A
7:17 pm 19:17 Mostly Cloudy 82 28 75 24 79 79 SW 8 13 29.94 1014 10 16.0934 N/A
7:36 pm 19:36 Partly Cloudy 82 28 75 24 79 79 SSW 7 11 29.94 1014 10 16.0934 N/A
7:57 pm 19:57 Sunny 81 27 73 23 79 79 S 6 9 29.94 1014 10 16.0934 N/A
8:16 pm 20:16 Mostly Cloudy 81 27 75 24 84 84 SSW 6 9 29.94 1014 10 16.0934 N/A
8:37 pm 20:37 Mostly Cloudy 79 26 75 24 89 89 SSW 6 9 29.94 1014 10 16.0934 N/A
8:56 pm 20:56 Partly Cloudy 79 26 73 23 84 84 S 3 6 29.94 1014 10 16.0934 N/A
9:16 pm 21:16 Clear 77 25 73 23 89 89 S 5 7 29.94 1014 10 16.0934 N/A
9:37 pm 21:37 Clear 77 25 73 23 89 89 SSW 3 6 29.94 1014 10 16.0934 N/A
9:56 pm 21:56 Partly Cloudy 77 25 73 23 89 89 N N/A 29.97 1015 10 16.0934 N/A
10:17 pm 22:17 Partly Cloudy 75 24 73 23 94 94 S 3 6 29.97 1015 10 16.0934 N/A
10:36 pm 22:36 Partly Cloudy 75 24 73 23 94 94 SSW 6 9 29.97 1015 10 16.0934 N/A
10:57 pm 22:57 Clear 75 24 73 23 94 94 SW 5 7 29.97 1015 10 16.0934 N/A
11:16 pm 23:16 Clear 75 24 73 23 94 94 N N/A 29.97 1015 10 16.0934 N/A
11:37 pm 23:37 Partly Cloudy 73 23 73 23 100 100 N N/A 29.97 1015 10 16.0934 N/A
11:56 pm 23:56 Clear 73 23 73 23 100 100 N N/A 29.97 1015 10 16.0934 N/A

Powered by AerisWeather